Location: Medlow Airstrip Trail, Medlow Bath NSW 2780, Australia
(33.6682°S, 150.3233°E)
Time: 19:27:17
(UTC+11:00)

Explorer 11/Cluster Stage 4 - Pass Details

Date: 29 September 2019
Orbit: 467 x 1259 km, 28.8° (Epoch: 14 October)

Event Time Altitude Azimuth Distance (km) Brightness Sun altitude
Rises 10:07:37 0° 274° (W) 2,840 9.2 50.6°
Reaches altitude 10° 10:09:52 10° 282° (WNW) 2,037 8.6 50.9°
Maximum altitude 10:14:15 37° 349° (N) 1,147 8.4 51.5°
Drops below altitude 10° 10:19:38 10° 54° (NE) 2,512 10.0 52.2°
Sets 10:22:42 0° 62° (ENE) 3,599 10.5 52.6°
